TimeCST,TemperatureF,Dew PointF,Humidity,Sea Level PressureIn,VisibilityMPH,Wind Direction,Wind SpeedMPH,Gust SpeedMPH,PrecipitationIn,Events,Conditions,WindDirDegrees,DateUTC
12:08 AM,42.1,13.1,31,-9999,-9999.0,West,4.6,-,N/A,,Unknown,260,2012-11-30 06:08:00
12:28 AM,39.0,13.1,35,-9999,-9999.0,West,5.8,-,N/A,,Unknown,260,2012-11-30 06:28:00
12:48 AM,39.0,14.0,36,-9999,-9999.0,WSW,5.8,-,N/A,,Unknown,250,2012-11-30 06:48:00
1:08 AM,39.9,15.1,36,-9999,-9999.0,West,8.1,-,N/A,,Unknown,260,2012-11-30 07:08:00
1:28 AM,41.0,15.1,35,-9999,-9999.0,West,9.2,-,N/A,,Unknown,260,2012-11-30 07:28:00
1:48 AM,41.0,16.2,37,-9999,-9999.0,West,5.8,-,N/A,,Unknown,260,2012-11-30 07:48:00
2:08 AM,42.1,16.2,35,-9999,-9999.0,WNW,4.6,-,N/A,,Unknown,290,2012-11-30 08:08:00
2:28 AM,41.0,16.2,37,-9999,-9999.0,West,8.1,-,N/A,,Unknown,270,2012-11-30 08:28:00
2:48 AM,41.0,16.2,37,-9999,-9999.0,West,6.9,-,N/A,,Unknown,270,2012-11-30 08:48:00
3:08 AM,39.9,15.1,36,-9999,-9999.0,West,6.9,-,N/A,,Unknown,270,2012-11-30 09:08:00
3:28 AM,39.0,15.1,38,-9999,-9999.0,West,8.1,-,N/A,,Unknown,270,2012-11-30 09:28:00
3:48 AM,39.0,15.1,38,-9999,-9999.0,West,6.9,-,N/A,,Unknown,280,2012-11-30 09:48:00
4:08 AM,39.9,16.2,38,-9999,-9999.0,West,5.8,-,N/A,,Unknown,280,2012-11-30 10:08:00
4:28 AM,39.9,15.1,36,-9999,-9999.0,West,6.9,-,N/A,,Unknown,280,2012-11-30 10:28:00
4:48 AM,39.0,15.1,38,-9999,-9999.0,WNW,8.1,-,N/A,,Unknown,290,2012-11-30 10:48:00
5:08 AM,37.0,14.0,39,-9999,-9999.0,West,11.5,-,N/A,,Unknown,260,2012-11-30 11:08:00
5:28 AM,37.9,15.1,39,-9999,-9999.0,WNW,9.2,-,N/A,,Unknown,290,2012-11-30 11:28:00
5:48 AM,37.9,16.2,41,-9999,-9999.0,West,5.8,-,N/A,,Unknown,280,2012-11-30 11:48:00
6:08 AM,37.0,15.1,41,-9999,-9999.0,WNW,5.8,-,N/A,,Unknown,290,2012-11-30 12:08:00
6:28 AM,37.0,16.2,43,-9999,-9999.0,WNW,3.5,-,N/A,,Unknown,290,2012-11-30 12:28:00
6:48 AM,37.0,15.1,41,-9999,-9999.0,WNW,5.8,-,N/A,,Unknown,290,2012-11-30 12:48:00
7:08 AM,37.9,15.1,39,-9999,-9999.0,WNW,5.8,-,N/A,,Unknown,300,2012-11-30 13:08:00
7:28 AM,37.0,16.2,43,-9999,-9999.0,WNW,4.6,-,N/A,,Unknown,290,2012-11-30 13:28:00
7:48 AM,37.0,15.1,41,-9999,-9999.0,WNW,5.8,-,N/A,,Unknown,290,2012-11-30 13:48:00
8:08 AM,36.0,15.1,43,-9999,-9999.0,West,6.9,-,N/A,,Unknown,270,2012-11-30 14:08:00
8:28 AM,37.0,16.2,43,-9999,-9999.0,WNW,4.6,-,N/A,,Unknown,290,2012-11-30 14:28:00
8:48 AM,39.0,17.1,41,-9999,-9999.0,West,5.8,-,N/A,,Unknown,280,2012-11-30 14:48:00
9:08 AM,41.0,17.1,38,-9999,-9999.0,WNW,5.8,-,N/A,,Unknown,290,2012-11-30 15:08:00
9:28 AM,44.1,19.0,37,-9999,-9999.0,WNW,4.6,-,N/A,,Unknown,300,2012-11-30 15:28:00
9:48 AM,48.0,22.1,36,-9999,-9999.0,NW,3.5,-,N/A,,Unknown,310,2012-11-30 15:48:00
10:08 AM,53.1,22.1,30,-9999,-9999.0,NNE,3.5,-,N/A,,Unknown,30,2012-11-30 16:08:00
10:28 AM,55.0,23.0,29,-9999,-9999.0,NNE,3.5,-,N/A,,Unknown,30,2012-11-30 16:28:00
10:48 AM,57.0,23.0,27,-9999,-9999.0,North,3.5,-,N/A,,Unknown,10,2012-11-30 16:48:00
11:08 AM,57.0,22.1,26,-9999,-9999.0,North,5.8,-,N/A,,Unknown,10,2012-11-30 17:08:00
11:28 AM,57.9,22.1,25,-9999,-9999.0,NNE,3.5,-,N/A,,Unknown,30,2012-11-30 17:28:00
11:48 AM,60.1,21.0,22,-9999,-9999.0,East,5.8,-,N/A,,Unknown,80,2012-11-30 17:48:00
12:08 PM,61.0,22.1,22,-9999,-9999.0,East,4.6,-,N/A,,Unknown,90,2012-11-30 18:08:00
12:28 PM,62.1,22.1,22,-9999,-9999.0,East,6.9,-,N/A,,Unknown,90,2012-11-30 18:28:00
12:48 PM,63.0,23.0,22,-9999,-9999.0,East,5.8,-,N/A,,Unknown,80,2012-11-30 18:48:00
1:08 PM,63.0,24.1,23,-9999,-9999.0,East,5.8,-,N/A,,Unknown,90,2012-11-30 19:08:00
1:28 PM,64.9,26.1,23,-9999,-9999.0,SE,9.2,-,N/A,,Unknown,130,2012-11-30 19:28:00
1:48 PM,66.0,26.1,22,-9999,-9999.0,ESE,12.7,-,N/A,,Unknown,120,2012-11-30 19:48:00
2:08 PM,66.9,26.1,21,-9999,-9999.0,SE,16.1,-,N/A,,Unknown,130,2012-11-30 20:08:00
2:28 PM,66.9,26.1,21,-9999,-9999.0,ESE,12.7,-,N/A,,Unknown,120,2012-11-30 20:28:00
2:48 PM,66.9,27.1,22,-9999,-9999.0,SE,13.8,-,N/A,,Unknown,140,2012-11-30 20:48:00
3:08 PM,66.0,26.1,22,-9999,-9999.0,SE,13.8,-,N/A,,Unknown,140,2012-11-30 21:08:00
3:28 PM,66.0,26.1,22,-9999,-9999.0,SE,15.0,-,N/A,,Unknown,130,2012-11-30 21:28:00
3:48 PM,66.0,26.1,22,-9999,-9999.0,SE,15.0,-,N/A,,Unknown,140,2012-11-30 21:48:00
4:08 PM,64.0,27.1,25,-9999,-9999.0,SSE,11.5,-,N/A,,Unknown,150,2012-11-30 22:08:00
4:28 PM,64.0,27.1,25,-9999,-9999.0,SSE,11.5,-,N/A,,Unknown,150,2012-11-30 22:28:00
4:48 PM,62.1,26.1,25,-9999,-9999.0,SSE,11.5,-,N/A,,Unknown,150,2012-11-30 22:48:00
5:08 PM,57.9,26.1,30,-9999,-9999.0,SE,9.2,-,N/A,,Unknown,140,2012-11-30 23:08:00
5:28 PM,53.1,24.1,32,-9999,-9999.0,SSE,9.2,-,N/A,,Unknown,150,2012-11-30 23:28:00
5:48 PM,50.0,23.0,35,-9999,-9999.0,SE,10.4,-,N/A,,Unknown,140,2012-11-30 23:48:00
6:08 PM,48.0,24.1,39,-9999,-9999.0,SE,9.2,-,N/A,,Unknown,140,2012-12-01 00:08:00
6:28 PM,48.0,23.0,37,-9999,-9999.0,SSE,11.5,-,N/A,,Unknown,150,2012-12-01 00:28:00
6:48 PM,46.0,23.0,40,-9999,-9999.0,SSE,9.2,-,N/A,,Unknown,160,2012-12-01 00:48:00
7:08 PM,44.1,22.1,42,-9999,-9999.0,SSE,10.4,-,N/A,,Unknown,150,2012-12-01 01:08:00
7:28 PM,46.9,24.1,41,-9999,-9999.0,SSE,10.4,-,N/A,,Unknown,160,2012-12-01 01:28:00
7:48 PM,45.0,24.1,44,-9999,-9999.0,SSE,9.2,-,N/A,,Unknown,160,2012-12-01 01:48:00
8:08 PM,44.1,23.0,43,-9999,-9999.0,SSE,9.2,-,N/A,,Unknown,160,2012-12-01 02:08:00
8:28 PM,44.1,23.0,43,-9999,-9999.0,South,8.1,-,N/A,,Unknown,170,2012-12-01 02:28:00
8:48 PM,44.1,22.1,42,-9999,-9999.0,South,9.2,-,N/A,,Unknown,170,2012-12-01 02:48:00
9:08 PM,45.0,22.1,40,-9999,-9999.0,South,11.5,-,N/A,,Unknown,170,2012-12-01 03:08:00
9:28 PM,46.0,22.1,39,-9999,-9999.0,South,10.4,-,N/A,,Unknown,170,2012-12-01 03:28:00
9:48 PM,46.9,22.1,38,-9999,-9999.0,South,10.4,-,N/A,,Unknown,170,2012-12-01 03:48:00
10:08 PM,46.9,22.1,38,-9999,-9999.0,SSE,10.4,-,N/A,,Unknown,160,2012-12-01 04:08:00
10:28 PM,46.9,22.1,38,-9999,-9999.0,South,8.1,-,N/A,,Unknown,170,2012-12-01 04:28:00
10:48 PM,46.0,21.0,37,-9999,-9999.0,South,8.1,-,N/A,,Unknown,180,2012-12-01 04:48:00
11:08 PM,48.0,21.0,34,-9999,-9999.0,South,9.2,-,N/A,,Unknown,180,2012-12-01 05:08:00
11:28 PM,46.9,19.0,33,-9999,-9999.0,South,11.5,-,N/A,,Unknown,190,2012-12-01 05:28:00
11:48 PM,46.0,21.0,37,-9999,-9999.0,South,9.2,-,N/A,,Unknown,180,2012-12-01 05:48:00